EHI
0 1 2 2 1 0 0 0 0 0 0 0 0 0 0 0 0 1 2 2 1 0 0 0 0 0 0 1 2 3 3 3 3 3 2 1 0 0 0 1 2 3 4
0 1 1 1 0 0 0 0 0 0 0 0 0 0 0 0 0 1 1 1 0 0 0 0 0 0 0 1 2 3 3 3 3 2 1 0 0 0 0 1 2 2 2
0 0 0 0 0 1 1 1 1 1 1 1 1 0 0 0 1 1 1 0 0 0 1 1 0 0 0 1 1 2 2 3 2 1 0 0 1 2 2 2 3 2 2
0 0 0 0 1 2 2 2 2 2 2 2 2 1 0 0 1 1 1 0 0 0 1 1 0 0 0 0 0 0 1 2 1 0 0 1 2 3 3 3 3 3 2
0 0 0 1 2 2 1 1 2 3 3 3 3 1 0 0 0 0 0 0 0 0 1 1 0 0 0 0 0 0 0 1 1 0 0 1 3 3 3 3 3 3 2
0 0 1 3 4 2 0 0 1 3 3 4 4 2 1 0 0 0 0 0 0 0 0 0 0 0 0 0 0 0 0 0 0 0 1 2 3 3 3 3 4 4 4
0 0 1 3 4 1 0 0 1 2 3 4 4 3 1 0 0 0 0 1 1 1 0 0 0 0 0 0 0 0 0 0 0 0 1 1 2 3 3 3 3 4 4
0 0 1 2 2 1 0 1 1 2 3 4 5 4 2 1 1 1 1 2 2 2 1 1 1 1 0 0 0 0 0 0 0 0 0 0 0 1 2 2 2 2 2
0 0 0 1 1 0 1 2 2 3 3 4 4 5 5 4 3 3 2 2 2 2 2 2 2 2 1 0 0 0 0 0 0 0 0 0 0 0 1 1 1 1 0
0 0 0 0 0 0 1 2 3 3 3 3 4 5 6 5 4 3 2 1 1 1 1 1 1 1 1 0 0 0 0 0 0 0 0 0 0 0 0 0 0 0 0
0 0 0 0 0 0 0 1 1 2 2 2 3 4 5 4 3 3 2 1 1 0 0 0 0 0 0 0 1 1 1 1 1 0 0 0 0 0 0 0 0 0 0
0 0 0 0 0 0 0 0 0 1 1 1 1 2 3 3 3 3 3 3 2 1 1 1 1 1 0 0 1 2 3 2 2 1 0 0 0 0 0 0 0 0 0
0 0 0 0 0 0 0 0 0 0 0 0 0 1 2 3 3 3 4 4 4 3 3 3 3 2 0 0 0 1 2 3 3 2 1 1 0 0 0 0 0 1 1
1 1 0 0 0 0 0 0 0 0 0 0 0 0 1 3 4 5 5 6 6 5 4 5 4 2 0 0 0 0 1 2 3 3 3 3 2 2 1 1 1 2 2
2 2 2 1 1 1 0 0 0 0 1 1 0 1 2 3 5 6 6 7 6 5 5 5 4 2 1 1 0 0 0 1 2 4 5 5 6 6 4 4 4 5 5
3 3 4 5 4 2 1 0 0 0 1 1 1 1 2 3 5 5 6 5 4 3 4 4 3 2 2 1 0 0 0 0 2 4 6 7 8 8 8 8 8 8 7
3 3 5 6 6 5 4 2 1 0 1 1 0 1 2 3 4 5 4 2 2 2 2 2 2 2 2 2 1 1 1 1 3 5 7 7 7 8 8 9 9 9 7
4 5 5 6 7 8 9 7 2 0 0 0 0 0 1 2 3 4 2 1 2 2 2 1 1 1 2 2 1 1 1 2 3 4 5 7 7 7 7 9 9 7 5
6 7 8 8 8 11 14 10 4 1 0 0 0 0 0 1 1 2 2 1 2 2 2 1 1 2 2 2 1 1 2 3 4 4 4 5 6 6 6 7 7 6 5
6 8 10 10 11 12 14 11 5 2 1 1 1 1 1 1 0 1 2 3 2 3 2 2 2 2 3 2 1 0 1 3 4 4 4 4 4 4 4 4 5 6 7
8 10 12 11 11 12 12 11 7 4 3 2 3 4 4 3 2 3 4 4 4 4 4 3 1 1 1 1 0 0 1 2 4 4 3 3 3 3 3 4 5 7 8
11 13 13 12 12 12 11 11 10 7 5 4 5 7 7 6 5 5 6 5 5 4 4 3 1 1 0 0 0 0 1 3 4 4 4 4 3 3 2 5 7 8 8
11 12 13 14 14 14 13 12 11 11 9 7 8 9 8 7 6 6 6 6 6 5 4 4 3 2 1 0 1 1 1 3 4 4 5 5 4 3 2 3 6 7 7
7 9 13 16 18 18 16 14 14 14 13 11 11 10 8 6 5 4 4 5 6 5 5 5 5 5 4 3 2 3 4 5 6 6 6 5 4 4 3 2 4 6 7
5 7 11 17 20 21 20 18 17 16 15 13 13 11 8 5 3 3 4 5 5 5 6 6 7 8 8 7 6 6 7 8 8 7 5 5 5 4 3 3 4 6 7
5 6 9 15 20 22 21 19 18 16 15 14 14 12 8 5 3 4 5 5 5 6 6 7 8 9 10 10 9 8 8 9 8 6 5 5 5 3 1 2 4 6 7
Wind_Speed
2 3 5 1 1 2 2 2 3 3 4 5 5 5 6 6 7 6 6 6 6 7 7 7 6 6 5 5 6 7 8 9 10 10 10 10 9 9 9 9 9 8 9
3 3 4 1 2 1 2 2 3 3 4 4 5 5 6 6 6 6 5 5 6 6 6 6 6 6 5 5 6 8 9 10 10 11 11 10 10 9 9 8 6 5 10
3 2 3 2 2 1 2 2 3 3 3 4 4 5 5 6 6 6 5 5 5 5 5 5 5 5 5 4 5 7 8 9 9 10 10 8 9 10 9 8 7 7 9
3 2 3 3 2 2 2 3 3 3 3 3 4 5 5 5 5 5 5 5 5 5 5 5 5 5 4 4 5 6 8 9 9 10 7 5 6 9 9 8 8 8 8
3 3 5 3 2 2 1 2 3 3 3 3 4 4 4 4 4 4 4 4 4 4 4 4 5 4 4 4 5 5 7 8 9 9 5 5 4 8 8 8 8 8 9
3 3 5 3 2 2 2 3 3 3 3 3 3 4 4 3 4 4 4 3 3 3 4 5 4 5 5 5 5 5 5 7 9 6 4 4 4 8 8 7 8 8 8
4 3 5 5 3 2 2 2 3 3 3 3 3 3 3 2 2 3 3 3 3 2 3 4 4 4 5 6 6 6 5 5 5 3 3 3 4 6 7 7 7 7 7
5 4 4 6 4 4 3 3 3 3 4 4 3 3 3 2 2 3 4 3 3 2 3 3 3 4 5 5 6 6 6 5 4 4 3 3 5 6 7 7 6 6 7
5 5 4 4 4 4 3 3 3 4 4 4 4 4 3 3 3 4 4 3 2 2 3 3 2 3 4 4 5 6 6 4 4 2 3 3 6 7 7 6 6 6 6
5 5 5 5 4 2 3 5 3 4 4 4 4 4 3 4 5 5 4 3 2 2 3 3 2 3 3 4 5 6 5 5 4 3 2 4 7 6 6 5 5 6 6
5 5 5 5 4 4 4 4 3 5 5 4 4 4 2 2 3 4 5 4 2 2 3 3 2 3 4 6 7 6 5 3 3 1 1 5 6 5 5 5 5 6 7
5 5 5 5 5 5 4 3 2 3 4 3 3 3 2 2 2 2 6 5 3 3 4 4 4 5 5 4 6 7 3 4 3 2 3 6 6 6 5 5 5 5 7
4 4 5 5 4 4 3 3 3 3 3 3 4 3 2 2 2 2 2 3 3 3 2 4 4 2 1 1 1 2 2 2 2 2 4 6 6 6 5 5 6 5 6
4 4 4 4 4 4 4 4 3 3 3 3 4 3 3 2 2 3 2 2 1 1 2 1 1 2 1 1 1 1 2 1 1 1 4 7 6 5 5 5 5 5 5
4 4 4 4 4 4 4 3 3 3 3 4 3 4 3 2 3 3 2 2 2 2 1 1 1 2 1 2 1 1 0 1 1 1 4 7 6 5 5 5 5 5 5
3 4 4 4 4 3 3 3 3 3 3 3 3 4 3 3 3 2 1 2 2 2 2 1 2 1 1 1 1 1 0 0 1 1 2 6 8 6 4 4 5 5 4
3 4 3 3 4 3 3 2 3 3 3 3 3 4 3 3 2 1 2 2 2 2 2 1 1 1 1 2 1 1 0 0 0 1 1 2 4 8 6 5 4 4 4
2 3 3 3 4 3 3 2 2 3 3 3 3 3 3 3 2 1 2 2 2 1 1 1 1 1 1 1 1 0 0 1 1 1 2 2 1 2 6 6 5 5 5
2 2 2 2 3 3 3 2 2 2 2 2 2 3 3 3 2 2 2 2 1 2 2 1 2 1 1 1 1 1 0 0 0 1 1 2 2 2 2 6 7 6 5
3 2 2 2 2 2 2 2 2 2 2 2 2 3 2 2 2 2 1 2 2 2 2 2 2 1 1 1 0 1 0 1 0 0 1 1 2 2 2 2 4 6 6
3 2 1 1 2 1 1 1 1 1 2 2 2 3 2 2 2 1 2 2 1 2 2 2 1 1 0 1 1 1 2 2 2 1 0 1 0 0 1 1 2 1 3
3 3 2 2 2 1 1 1 1 1 1 1 2 3 2 2 2 1 2 1 2 1 1 1 1 1 1 1 2 2 1 3 2 2 1 1 0 0 1 1 0 1 2
3 3 2 2 2 1 1 1 1 1 1 1 1 1 1 1 1 2 2 2 2 1 2 1 1 1 2 1 2 3 2 1 0 2 1 0 1 1 1 0 1 1 2
4 3 3 2 2 2 2 2 1 1 0 1 0 1 1 1 1 1 1 1 1 1 1 1 2 1 2 1 0 1 2 3 3 0 2 1 1 0 1 1 1 0 1
4 3 3 3 2 2 2 2 2 2 1 1 1 1 0 1 0 0 0 1 1 1 1 2 2 3 2 2 2 1 1 1 3 3 2 1 1 1 1 1 1 1 1
4 4 3 3 3 3 3 3 2 2 1 1 1 0 1 1 1 0 0 1 1 1 1 1 2 2 3 3 3 2 2 2 2 2 3 3 2 1 1 1 2 1 1
Wind_Direction
54 68 103 168 158 162 158 153 158 160 159 160 164 165 165 163 159 157 157 159 160 164 166 164 165 165 166 172 173 172 170 170 168 165 167 171 168 169 171 176 183 175 155
38 70 118 169 169 168 169 168 158 153 152 160 164 165 163 157 153 152 158 163 164 165 168 168 166 167 169 170 171 171 168 167 169 169 172 173 171 172 176 179 190 161 157
42 82 137 127 132 155 160 155 147 145 148 153 158 160 157 155 155 157 160 165 166 168 169 168 167 170 166 161 167 168 167 169 173 175 184 185 168 166 175 176 176 168 164
45 79 87 76 78 114 146 151 151 147 142 139 151 156 156 154 157 160 163 167 170 174 170 168 170 169 162 158 164 167 169 170 178 188 190 180 168 155 169 175 177 175 175
56 50 82 55 54 74 111 134 138 138 136 134 144 152 150 148 155 162 164 166 167 168 170 170 174 174 167 171 169 170 177 177 185 200 183 176 164 150 168 178 181 180 182
62 55 83 61 39 57 87 115 126 132 138 135 134 136 135 148 162 166 163 155 151 159 174 178 179 179 176 179 175 174 178 189 200 190 178 176 159 151 174 185 184 186 189
54 55 82 75 48 43 77 96 112 128 131 121 117 120 125 140 156 161 153 160 160 161 167 169 176 182 180 178 175 175 176 191 210 180 175 177 150 157 181 188 194 192 192
51 54 82 106 74 57 61 69 84 106 114 115 115 117 118 117 127 140 149 154 162 165 162 165 174 184 180 179 176 179 181 205 192 179 177 167 149 177 191 192 194 195 193
48 47 52 83 99 100 92 83 79 101 108 112 107 107 111 113 123 134 150 154 157 160 164 162 161 154 170 173 171 173 176 196 228 180 176 158 153 181 194 193 193 197 195
47 40 38 51 51 53 89 97 95 114 116 114 107 102 114 132 139 145 159 129 121 124 138 149 158 150 154 156 158 164 174 204 210 192 179 143 148 177 195 193 194 201 199
48 46 35 44 47 40 38 71 104 127 128 138 127 125 157 132 125 141 97 96 111 119 125 131 128 162 175 160 161 168 195 200 170 194 166 131 162 182 189 191 200 218 209
46 50 49 39 37 45 38 46 61 88 97 90 80 85 74 79 80 84 111 120 118 131 153 145 151 179 204 167 161 184 196 179 174 175 132 147 177 186 189 190 201 217 203
51 50 56 55 32 32 43 40 51 70 79 86 80 70 71 67 83 83 92 122 131 151 148 143 170 170 153 115 166 178 171 187 167 164 134 152 173 187 195 194 201 204 200
55 52 51 53 61 39 31 37 50 62 69 68 73 54 64 68 56 61 59 52 56 88 106 113 124 110 105 121 159 167 170 194 167 151 134 154 172 190 198 196 198 205 203
69 57 59 48 51 53 49 32 52 53 54 67 59 59 52 64 62 59 48 46 41 69 109 109 95 99 112 118 141 135 185 208 194 186 136 151 172 192 202 204 202 210 212
77 69 62 61 71 62 57 52 54 65 77 62 63 61 55 61 61 53 61 54 48 45 46 48 95 124 136 116 128 132 267 259 166 202 176 157 172 186 199 200 199 203 208
75 69 69 75 73 72 62 57 64 61 68 63 65 63 55 60 72 61 59 59 47 46 64 70 77 108 134 132 119 113 145 271 125 214 213 194 171 175 185 191 198 205 211
80 83 67 65 79 77 71 61 63 55 56 57 61 65 56 44 44 33 55 53 37 35 55 75 53 69 71 86 93 43 152 154 190 211 206 194 198 175 173 180 195 205 211
107 105 96 69 71 73 82 97 92 81 63 48 53 56 57 47 36 23 39 41 16 33 44 29 66 32 66 51 120 145 165 122 160 217 202 199 188 213 199 164 187 200 203
124 122 113 108 87 93 111 109 95 86 80 63 57 56 51 58 50 20 61 56 25 45 43 45 56 53 358 315 332 82 97 98 153 86 236 183 192 215 212 202 196 189 194
144 140 131 105 103 118 105 104 97 99 89 76 69 62 56 48 54 31 31 69 43 66 51 47 25 106 19 325 261 179 160 150 125 131 79 16 102 166 219 221 249 245 185
158 162 165 166 145 170 116 105 74 54 80 82 67 73 63 57 35 49 42 29 59 74 78 53 25 336 29 17 314 299 188 158 173 130 128 160 17 290 238 212 223 232 264
170 174 167 169 169 186 192 182 146 154 162 123 103 100 71 54 52 34 33 18 35 33 62 35 18 359 335 352 352 323 313 8 5 149 145 107 10 351 309 325 238 236 263
179 170 170 177 177 184 196 200 200 195 139 76 118 92 90 78 59 51 29 28 10 25 53 325 48 345 322 325 72 340 337 348 304 263 181 158 177 278 313 305 314 258 272
174 172 168 171 179 188 198 192 213 217 198 174 160 125 194 127 110 342 4 0 350 6 33 2 354 331 331 333 330 307 278 244 265 284 299 290 238 220 266 291 315 286 280
177 177 170 164 179 192 198 199 215 227 238 252 245 202 216 169 175 58 310 328 310 351 13 317 315 333 335 333 315 309 306 302 308 302 289 285 291 283 277 315 293 301 296